Location: Caicarita
(10.0502°N, 67.6875°W)
Time: 21:55:09
(UTC+00:00)

Meteor PRIRODA - Pass Details

Date: 05 August 2024
Orbit: 428 x 443 km, 97.5° (Epoch: 07 September)

Event Time Altitude Azimuth Distance (km) Brightness Sun altitude
Exits shadow 23:40:08 17° 135° (SE) 1,225 5.1 -12.0°
Maximum altitude 23:42:17 33° 78° (ENE) 769 4.1 -12.5°
Drops below altitude 10° 23:45:22 10° 12° (NNE) 1,577 6.3 -13.2°
Sets 23:47:31 0° 2° (N) 2,452 7.4 -13.7°
